Simultaneous Nadir Overpasses (SNOs) Predictions

Prediction of SNOs between GOES-17 and FY3D Satellite Orbit:

Table of predicted SNOs for the next 14.0 days since TLE Epoch: 11/25/2023
Index Date Time (GOES-17) GOES-17 Lat,Lon FY3D Lat,Lon Distance(km) Time Diff (sec)
1 11/26/2023 09:28:31 0.01,-104.69 0.69,-107.56 328.65 80
2 11/27/2023 09:07:24 0.02,-104.69 -0.32,-103.09 181.15 80
3 11/28/2023 21:29:48 -0.02,-104.65 -0.90,-108.48 436.42 80
4 11/29/2023 21:14:01 -0.02,-104.65 0.12,-104.01 73.31 80
5 12/02/2023 09:17:50 0.01,-104.69 0.04,-104.89 22.95 80
6 12/03/2023 08:56:44 0.01,-104.69 -0.99,-100.43 486.91 80
7 12/04/2023 21:19:06 -0.01,-104.66 -0.28,-105.80 130.28 80
8 12/05/2023 21:03:19 -0.01,-104.66 0.75,-101.33 379.96 80
9 12/07/2023 09:25:34 0.01,-104.71 0.47,-106.67 224.78 80
10 12/08/2023 09:04:27 0.01,-104.71 -0.57,-102.21 285.36 80
